Find Starlink 31078

NORAD ID: 58638 Int'l Des: 2023-203 Owner: SPXS Country: US Constellation: starlink operational
LEOCIRCULAR

Live Position

Loading 3D Globe...

About Starlink 31078

Description loading...

Upcoming Passes

Passes for default location (London). Set your location on the main map for personalized predictions.

Altitude History

Loading altitude history...

Two-Line Element Set

1 58638U 23203W 26132.53638855 .00000322 00000-0 21207-4 0 9990
2 58638 43.0046 66.7185 0000905 286.6784 73.3968 15.27577644133323
Epoch: May 12, 2026 • Age: 15 hours

Current Status

Altitude 482.8 km
Velocity 7.63 km/s
Sub-Earth Point 19.08°N, 64.16°W
Launch Date Dec 23, 2023
Age 2.3 years
Type internet

Technical Details

Classification Payload
Mass 730.00 kg
Dry Mass 700.00 kg
Total Mass 730.00 kg
Length 0.30 m
Diameter 4.10 m
Span 29.00 m
Shape Box + pan
Manufacturer SPXS
Bus Type Starlink V2M
Phase Status In Orbit
Owner/State SPXS/US

Most Searched